Time,TemperatureF,DewpointF,PressureIn,WindDirection,WindDirectionDegrees,WindSpeedMPH,WindSpeedGustMPH,Humidity,HourlyPrecipIn,Conditions,Clouds,dailyrainin,SoftwareType,DateUTC
2013-03-03 00:00:00,26.3,23.0,29.26,NE,45,1.9,3.7,87,0.00,,,0.00,Rainwise IP-100,2013-03-03 05:00:00,
2013-03-03 00:05:00,26.3,23.0,29.26,NE,45,2.3,2.6,87,0.00,,,0.00,Rainwise IP-100,2013-03-03 05:05:00,
2013-03-03 00:10:00,26.2,23.0,29.26,NE,45,2.3,2.8,86,0.00,,,0.00,Rainwise IP-100,2013-03-03 05:10:00,
2013-03-03 00:15:00,26.1,23.0,29.26,North,360,3.7,5.4,86,0.00,,,0.00,Rainwise IP-100,2013-03-03 05:15:00,
2013-03-03 00:20:00,26.1,23.0,29.26,NNE,22,0.0,4.7,86,0.00,,,0.00,Rainwise IP-100,2013-03-03 05:20:00,
2013-03-03 00:25:00,25.9,23.0,29.26,North,360,2.8,2.8,86,0.00,,,0.00,Rainwise IP-100,2013-03-03 05:25:00,
2013-03-03 00:30:00,25.8,23.0,29.26,NNE,22,0.0,4.2,86,0.00,,,0.00,Rainwise IP-100,2013-03-03 05:30:00,
2013-03-03 00:35:00,25.7,23.0,29.26,NNE,22,3.3,4.4,87,0.00,,,0.00,Rainwise IP-100,2013-03-03 05:35:00,
2013-03-03 00:40:00,25.5,23.0,29.25,NNE,22,1.4,4.4,88,0.00,,,0.00,Rainwise IP-100,2013-03-03 05:40:00,
2013-03-03 00:45:00,25.4,23.0,29.25,NNE,22,1.6,2.1,88,0.00,,,0.00,Rainwise IP-100,2013-03-03 05:45:00,
2013-03-03 00:50:00,25.4,23.0,29.26,NNE,22,0.0,2.6,89,0.00,,,0.00,Rainwise IP-100,2013-03-03 05:50:00,
2013-03-03 00:56:00,25.3,23.0,29.25,NNE,22,0.0,2.1,89,0.00,,,0.00,Rainwise IP-100,2013-03-03 05:56:00,
2013-03-03 01:01:00,25.3,23.0,29.26,NNE,22,0.0,0.0,89,0.00,,,0.00,Rainwise IP-100,2013-03-03 06:01:00,
2013-03-03 01:06:00,25.3,23.0,29.26,NNE,22,0.0,1.4,89,0.00,,,0.00,Rainwise IP-100,2013-03-03 06:06:00,
2013-03-03 01:11:00,25.3,23.0,29.25,NNW,337,7.0,7.0,89,0.00,,,0.00,Rainwise IP-100,2013-03-03 06:11:00,
2013-03-03 01:16:00,25.4,23.0,29.25,NNW,337,2.6,7.7,89,0.00,,,0.00,Rainwise IP-100,2013-03-03 06:16:00,
2013-03-03 01:21:00,25.4,23.0,29.26,NNW,337,4.2,4.7,88,0.00,,,0.00,Rainwise IP-100,2013-03-03 06:21:00,
2013-03-03 01:26:00,25.5,23.0,29.25,West,270,2.1,6.3,88,0.00,,,0.00,Rainwise IP-100,2013-03-03 06:26:00,
2013-03-03 01:31:00,25.6,23.0,29.25,North,360,0.0,6.8,87,0.00,,,0.00,Rainwise IP-100,2013-03-03 06:31:00,
2013-03-03 01:36:00,25.6,23.0,29.25,North,360,2.3,7.0,87,0.00,,,0.00,Rainwise IP-100,2013-03-03 06:36:00,
2013-03-03 01:41:00,25.6,23.0,29.25,North,360,2.1,5.6,87,0.00,,,0.00,Rainwise IP-100,2013-03-03 06:41:00,
2013-03-03 01:46:00,25.5,23.0,29.25,NNE,22,2.6,4.4,87,0.00,,,0.00,Rainwise IP-100,2013-03-03 06:46:00,
2013-03-03 01:51:00,25.5,23.0,29.25,NNW,337,2.3,7.0,87,0.00,,,0.00,Rainwise IP-100,2013-03-03 06:51:00,
2013-03-03 01:56:00,25.5,23.0,29.25,North,360,2.6,5.4,87,0.00,,,0.00,Rainwise IP-100,2013-03-03 06:56:00,
2013-03-03 02:00:00,25.5,23.0,29.25,NNW,337,0.0,5.1,87,0.00,,,0.00,Rainwise IP-100,2013-03-03 07:00:00,
2013-03-03 02:05:00,25.4,23.0,29.25,North,360,0.0,4.9,87,0.00,,,0.00,Rainwise IP-100,2013-03-03 07:05:00,
2013-03-03 02:10:00,25.3,23.0,29.24,NNE,22,3.5,5.4,88,0.00,,,0.00,Rainwise IP-100,2013-03-03 07:10:00,
2013-03-03 02:15:00,25.3,23.0,29.24,NNW,337,6.1,7.2,88,0.00,,,0.00,Rainwise IP-100,2013-03-03 07:15:00,
2013-03-03 02:20:00,25.3,23.0,29.24,North,360,2.6,6.3,88,0.00,,,0.00,Rainwise IP-100,2013-03-03 07:20:00,
2013-03-03 02:25:00,25.2,23.0,29.24,NNE,22,3.0,7.0,88,0.00,,,0.00,Rainwise IP-100,2013-03-03 07:25:00,
2013-03-03 02:30:00,25.2,23.0,29.24,NNW,337,1.2,4.2,88,0.00,,,0.00,Rainwise IP-100,2013-03-03 07:30:00,
2013-03-03 02:35:00,25.2,23.0,29.24,North,360,1.6,6.1,88,0.00,,,0.00,Rainwise IP-100,2013-03-03 07:35:00,
2013-03-03 02:40:00,25.1,23.0,29.24,North,360,1.6,5.6,89,0.00,,,0.00,Rainwise IP-100,2013-03-03 07:40:00,
2013-03-03 02:45:00,25.2,23.0,29.24,NNW,337,4.4,5.6,89,0.00,,,0.00,Rainwise IP-100,2013-03-03 07:45:00,
2013-03-03 02:50:00,25.2,23.0,29.24,NNW,337,3.7,6.1,88,0.00,,,0.00,Rainwise IP-100,2013-03-03 07:50:00,
2013-03-03 02:55:00,25.3,23.0,29.23,NNW,337,2.1,7.2,88,0.00,,,0.00,Rainwise IP-100,2013-03-03 07:55:00,
2013-03-03 03:00:00,25.3,23.0,29.24,North,360,3.3,4.0,88,0.00,,,0.00,Rainwise IP-100,2013-03-03 08:00:00,
2013-03-03 03:05:00,25.3,23.0,29.24,NNE,22,4.0,6.8,87,0.00,,,0.00,Rainwise IP-100,2013-03-03 08:05:00,
2013-03-03 03:11:00,25.3,23.0,29.24,NW,315,0.0,4.9,87,0.00,,,0.00,Rainwise IP-100,2013-03-03 08:11:00,
2013-03-03 03:16:00,25.3,23.0,29.23,WSW,247,2.1,6.3,87,0.00,,,0.00,Rainwise IP-100,2013-03-03 08:16:00,
2013-03-03 03:21:00,25.4,23.0,29.24,NNE,22,0.0,10.5,86,0.00,,,0.00,Rainwise IP-100,2013-03-03 08:21:00,
2013-03-03 03:26:00,25.4,23.0,29.24,NNW,337,5.6,5.6,86,0.00,,,0.00,Rainwise IP-100,2013-03-03 08:26:00,
2013-03-03 03:31:00,25.4,23.0,29.24,NNE,22,3.5,7.2,86,0.00,,,0.00,Rainwise IP-100,2013-03-03 08:31:00,
2013-03-03 03:36:00,25.4,23.0,29.23,NNW,337,3.5,5.8,86,0.00,,,0.00,Rainwise IP-100,2013-03-03 08:36:00,
2013-03-03 03:41:00,25.4,23.0,29.23,NNW,337,4.0,6.8,86,0.00,,,0.00,Rainwise IP-100,2013-03-03 08:41:00,
2013-03-03 03:46:00,25.3,23.0,29.23,NNW,337,5.8,7.5,86,0.00,,,0.00,Rainwise IP-100,2013-03-03 08:46:00,
2013-03-03 03:51:00,25.3,23.0,29.23,NNW,337,4.7,7.9,86,0.00,,,0.00,Rainwise IP-100,2013-03-03 08:51:00,
2013-03-03 03:56:00,25.2,23.0,29.23,NNW,337,4.7,5.8,86,0.00,,,0.00,Rainwise IP-100,2013-03-03 08:56:00,
2013-03-03 04:01:00,25.2,23.0,29.23,North,360,4.0,6.5,86,0.00,,,0.00,Rainwise IP-100,2013-03-03 09:01:00,
2013-03-03 04:06:00,25.2,23.0,29.23,NNW,337,6.1,8.6,86,0.00,,,0.00,Rainwise IP-100,2013-03-03 09:06:00,
2013-03-03 04:11:00,25.2,23.0,29.23,ENE,67,3.7,7.2,86,0.00,,,0.00,Rainwise IP-100,2013-03-03 09:11:00,
2013-03-03 04:16:00,25.2,23.0,29.23,North,360,6.5,6.8,86,0.00,,,0.00,Rainwise IP-100,2013-03-03 09:16:00,
2013-03-03 04:21:00,25.2,23.0,29.23,North,360,4.4,7.5,86,0.00,,,0.00,Rainwise IP-100,2013-03-03 09:21:00,
2013-03-03 04:27:00,25.2,23.0,29.23,North,360,2.8,7.2,85,0.00,,,0.00,Rainwise IP-100,2013-03-03 09:27:00,
2013-03-03 04:32:00,25.3,23.0,29.23,NNW,337,4.0,6.8,85,0.00,,,0.00,Rainwise IP-100,2013-03-03 09:32:00,
2013-03-03 04:37:00,25.3,23.0,29.23,NNE,22,4.9,8.9,85,0.00,,,0.00,Rainwise IP-100,2013-03-03 09:37:00,
2013-03-03 04:42:00,25.4,23.0,29.23,NNE,22,2.3,7.0,85,0.00,,,0.00,Rainwise IP-100,2013-03-03 09:42:00,
2013-03-03 04:47:00,25.4,23.0,29.23,NNE,22,3.3,8.2,85,0.00,,,0.00,Rainwise IP-100,2013-03-03 09:47:00,
2013-03-03 04:52:00,25.3,23.0,29.23,NE,45,4.2,8.6,86,0.00,,,0.00,Rainwise IP-100,2013-03-03 09:52:00,
2013-03-03 04:57:00,25.2,23.0,29.23,NNW,337,5.1,7.7,86,0.00,,,0.00,Rainwise IP-100,2013-03-03 09:57:00,
2013-03-03 05:02:00,25.1,23.0,29.23,NNE,22,4.9,6.3,86,0.00,,,0.00,Rainwise IP-100,2013-03-03 10:02:00,
2013-03-03 05:08:00,25.0,23.0,29.23,NNE,22,3.7,9.1,87,0.00,,,0.00,Rainwise IP-100,2013-03-03 10:08:00,
2013-03-03 05:13:00,25.0,23.0,29.23,NNE,22,3.7,7.0,87,0.00,,,0.00,Rainwise IP-100,2013-03-03 10:13:00,
2013-03-03 05:18:00,25.0,23.0,29.23,North,360,3.0,6.5,87,0.00,,,0.00,Rainwise IP-100,2013-03-03 10:18:00,
2013-03-03 05:23:00,25.0,23.0,29.24,NW,315,2.1,7.2,87,0.00,,,0.00,Rainwise IP-100,2013-03-03 10:23:00,
2013-03-03 05:28:00,25.0,23.0,29.23,NW,315,3.5,5.6,87,0.00,,,0.00,Rainwise IP-100,2013-03-03 10:28:00,
2013-03-03 05:33:00,25.0,23.0,29.23,NNE,22,2.3,7.0,87,0.00,,,0.00,Rainwise IP-100,2013-03-03 10:33:00,
2013-03-03 05:38:00,25.1,23.0,29.24,North,360,3.7,7.0,87,0.00,,,0.00,Rainwise IP-100,2013-03-03 10:38:00,
2013-03-03 05:43:00,25.0,23.0,29.23,NNE,22,4.7,6.1,87,0.00,,,0.00,Rainwise IP-100,2013-03-03 10:43:00,
2013-03-03 05:48:00,25.0,23.0,29.24,North,360,3.5,6.1,87,0.00,,,0.00,Rainwise IP-100,2013-03-03 10:48:00,
2013-03-03 05:53:00,25.0,23.0,29.23,NNE,22,3.0,5.4,87,0.00,,,0.00,Rainwise IP-100,2013-03-03 10:53:00,
2013-03-03 05:58:00,25.0,23.0,29.24,NNW,337,2.1,4.4,87,0.00,,,0.00,Rainwise IP-100,2013-03-03 10:58:00,
2013-03-03 06:03:00,25.0,23.0,29.24,NNW,337,2.8,6.3,87,0.00,,,0.00,Rainwise IP-100,2013-03-03 11:03:00,
2013-03-03 06:08:00,25.0,23.0,29.24,NNE,22,2.3,7.0,87,0.00,,,0.00,Rainwise IP-100,2013-03-03 11:08:00,
2013-03-03 06:13:00,24.9,23.0,29.24,NNE,22,2.6,6.1,88,0.00,,,0.00,Rainwise IP-100,2013-03-03 11:13:00,
2013-03-03 06:19:00,24.9,23.0,29.24,NNW,337,0.0,4.4,88,0.00,,,0.00,Rainwise IP-100,2013-03-03 11:19:00,
2013-03-03 06:24:00,24.8,23.0,29.24,NNW,337,3.7,4.4,88,0.00,,,0.00,Rainwise IP-100,2013-03-03 11:24:00,
2013-03-03 06:29:00,24.8,23.0,29.25,North,360,1.9,4.9,89,0.00,,,0.00,Rainwise IP-100,2013-03-03 11:29:00,
2013-03-03 06:34:00,24.8,23.0,29.25,North,360,2.6,4.2,89,0.00,,,0.00,Rainwise IP-100,2013-03-03 11:34:00,
2013-03-03 06:39:00,24.8,23.0,29.25,NNE,22,1.6,4.4,89,0.00,,,0.00,Rainwise IP-100,2013-03-03 11:39:00,
2013-03-03 06:44:00,24.8,23.0,29.24,NNW,337,2.8,2.8,89,0.00,,,0.00,Rainwise IP-100,2013-03-03 11:44:00,
2013-03-03 06:49:00,24.8,23.0,29.24,NNE,22,2.3,5.6,89,0.00,,,0.00,Rainwise IP-100,2013-03-03 11:49:00,
2013-03-03 06:54:00,24.7,23.0,29.24,NNE,22,3.0,6.5,89,0.00,,,0.00,Rainwise IP-100,2013-03-03 11:54:00,
2013-03-03 06:59:00,24.7,24.0,29.24,NNW,337,1.4,4.9,90,0.00,,,0.00,Rainwise IP-100,2013-03-03 11:59:00,
2013-03-03 07:04:00,24.7,24.0,29.24,NNE,22,1.6,7.7,90,0.00,,,0.00,Rainwise IP-100,2013-03-03 12:04:00,
2013-03-03 07:09:00,24.7,24.0,29.24,NNE,22,3.5,5.8,90,0.00,,,0.00,Rainwise IP-100,2013-03-03 12:09:00,
2013-03-03 07:14:00,24.6,24.0,29.25,North,360,1.4,10.0,91,0.00,,,0.00,Rainwise IP-100,2013-03-03 12:14:00,
2013-03-03 07:19:00,24.7,24.0,29.25,NNE,22,2.8,4.9,91,0.00,,,0.00,Rainwise IP-100,2013-03-03 12:19:00,
2013-03-03 07:24:00,24.7,24.0,29.25,North,360,2.6,6.5,91,0.00,,,0.00,Rainwise IP-100,2013-03-03 12:24:00,
2013-03-03 07:29:00,24.7,24.0,29.25,NNE,22,1.2,8.9,90,0.00,,,0.00,Rainwise IP-100,2013-03-03 12:29:00,
2013-03-03 07:35:00,24.9,24.0,29.25,NNE,22,2.6,4.9,90,0.00,,,0.00,Rainwise IP-100,2013-03-03 12:35:00,
2013-03-03 07:40:00,25.0,23.0,29.25,NNW,337,4.0,8.4,89,0.00,,,0.00,Rainwise IP-100,2013-03-03 12:40:00,
2013-03-03 07:45:00,25.3,23.0,29.25,North,360,4.7,7.0,89,0.00,,,0.00,Rainwise IP-100,2013-03-03 12:45:00,
2013-03-03 07:50:00,25.5,23.0,29.25,North,360,3.5,6.3,88,0.00,,,0.00,Rainwise IP-100,2013-03-03 12:50:00,
2013-03-03 07:55:00,25.6,23.0,29.25,NNW,337,5.1,8.4,87,0.00,,,0.00,Rainwise IP-100,2013-03-03 12:55:00,
2013-03-03 08:00:00,25.7,23.0,29.25,NNE,22,2.6,6.5,87,0.00,,,0.00,Rainwise IP-100,2013-03-03 13:00:00,
2013-03-03 08:05:00,25.8,23.0,29.25,NNW,337,4.9,5.6,87,0.00,,,0.00,Rainwise IP-100,2013-03-03 13:05:00,
2013-03-03 08:10:00,26.0,23.0,29.25,NNE,22,4.9,6.3,86,0.00,,,0.00,Rainwise IP-100,2013-03-03 13:10:00,
2013-03-03 08:15:00,26.2,23.0,29.25,NNW,337,6.3,6.8,86,0.00,,,0.00,Rainwise IP-100,2013-03-03 13:15:00,
2013-03-03 08:20:00,26.3,23.0,29.25,NNE,22,5.1,7.0,85,0.00,,,0.00,Rainwise IP-100,2013-03-03 13:20:00,
2013-03-03 08:25:00,26.4,23.0,29.25,NNE,22,4.4,7.5,84,0.00,,,0.00,Rainwise IP-100,2013-03-03 13:25:00,
2013-03-03 08:30:00,26.6,24.0,29.24,NNE,22,3.0,6.1,84,0.00,,,0.00,Rainwise IP-100,2013-03-03 13:30:00,
2013-03-03 08:35:00,26.8,23.0,29.25,NNE,22,3.7,7.2,83,0.00,,,0.00,Rainwise IP-100,2013-03-03 13:35:00,
2013-03-03 08:40:00,26.9,23.0,29.24,NNW,337,1.2,5.8,83,0.00,,,0.00,Rainwise IP-100,2013-03-03 13:40:00,
2013-03-03 08:45:00,27.0,23.0,29.24,WNW,292,3.3,5.1,83,0.00,,,0.00,Rainwise IP-100,2013-03-03 13:45:00,
2013-03-03 08:51:00,27.1,23.0,29.24,NNE,22,1.9,6.8,83,0.00,,,0.00,Rainwise IP-100,2013-03-03 13:51:00,
2013-03-03 08:56:00,27.3,23.0,29.24,NNE,22,1.9,6.5,82,0.00,,,0.00,Rainwise IP-100,2013-03-03 13:56:00,
2013-03-03 09:01:00,27.4,23.0,29.24,NNE,22,3.7,5.4,82,0.00,,,0.00,Rainwise IP-100,2013-03-03 14:01:00,
2013-03-03 09:06:00,27.2,23.0,29.24,NE,45,1.2,5.1,82,0.00,,,0.00,Rainwise IP-100,2013-03-03 14:06:00,
2013-03-03 09:11:00,27.2,23.0,29.24,North,360,0.0,4.7,83,0.00,,,0.00,Rainwise IP-100,2013-03-03 14:11:00,
2013-03-03 09:16:00,27.3,24.0,29.24,NNW,337,2.3,3.0,84,0.00,,,0.00,Rainwise IP-100,2013-03-03 14:16:00,
2013-03-03 09:21:00,27.3,24.0,29.24,ENE,67,3.5,4.7,84,0.00,,,0.00,Rainwise IP-100,2013-03-03 14:21:00,
2013-03-03 09:26:00,27.1,24.0,29.24,NE,45,1.9,4.2,84,0.00,,,0.00,Rainwise IP-100,2013-03-03 14:26:00,
2013-03-03 09:31:00,27.2,24.0,29.24,NE,45,1.6,3.7,84,0.00,,,0.00,Rainwise IP-100,2013-03-03 14:31:00,
2013-03-03 09:36:00,27.4,24.0,29.23,NE,45,2.8,2.8,84,0.00,,,0.00,Rainwise IP-100,2013-03-03 14:36:00,
2013-03-03 09:41:00,27.5,24.0,29.23,ENE,67,1.2,3.5,84,0.00,,,0.00,Rainwise IP-100,2013-03-03 14:41:00,
2013-03-03 09:46:00,28.0,24.0,29.23,ENE,67,0.0,2.8,85,0.00,,,0.00,Rainwise IP-100,2013-03-03 14:46:00,
2013-03-03 09:51:00,28.7,26.0,29.23,NNE,22,1.4,1.9,89,0.00,,,0.00,Rainwise IP-100,2013-03-03 14:51:00,
2013-03-03 09:56:00,28.7,26.0,29.23,ENE,67,1.2,2.6,90,0.00,,,0.00,Rainwise IP-100,2013-03-03 14:56:00,
2013-03-03 10:01:00,28.8,26.0,29.23,ENE,67,2.3,2.8,90,0.00,,,0.00,Rainwise IP-100,2013-03-03 15:01:00,
2013-03-03 10:07:00,28.8,26.0,29.23,NE,45,0.0,4.4,89,0.00,,,0.00,Rainwise IP-100,2013-03-03 15:07:00,
2013-03-03 10:12:00,28.5,26.0,29.23,ENE,67,0.0,3.7,87,0.00,,,0.00,Rainwise IP-100,2013-03-03 15:12:00,
2013-03-03 10:17:00,28.8,26.0,29.23,NE,45,3.5,4.0,86,0.00,,,0.00,Rainwise IP-100,2013-03-03 15:17:00,
2013-03-03 10:22:00,28.8,26.0,29.22,NE,45,2.1,4.4,86,0.00,,,0.00,Rainwise IP-100,2013-03-03 15:22:00,
2013-03-03 10:27:00,28.7,26.0,29.23,ENE,67,1.6,4.2,85,0.00,,,0.00,Rainwise IP-100,2013-03-03 15:27:00,
2013-03-03 10:32:00,29.4,26.0,29.22,NNE,22,0.0,4.2,85,0.06,,,0.01,Rainwise IP-100,2013-03-03 15:32:00,
2013-03-03 10:37:00,29.5,26.0,29.22,East,90,2.3,5.4,85,0.06,,,0.01,Rainwise IP-100,2013-03-03 15:37:00,
2013-03-03 10:42:00,29.1,26.0,29.22,NE,45,4.0,5.4,85,0.00,,,0.01,Rainwise IP-100,2013-03-03 15:42:00,
2013-03-03 10:47:00,29.2,26.0,29.22,ENE,67,0.0,5.4,86,0.06,,,0.02,Rainwise IP-100,2013-03-03 15:47:00,
2013-03-03 10:52:00,29.5,26.0,29.22,ENE,67,1.2,3.5,85,0.06,,,0.02,Rainwise IP-100,2013-03-03 15:52:00,
2013-03-03 10:57:00,29.8,28.0,29.22,ENE,67,1.4,2.6,87,0.00,,,0.02,Rainwise IP-100,2013-03-03 15:57:00,
2013-03-03 11:02:00,30.1,28.0,29.22,NNE,22,1.2,4.4,88,0.00,,,0.02,Rainwise IP-100,2013-03-03 16:02:00,
2013-03-03 11:07:00,30.0,28.0,29.22,ENE,67,3.0,4.0,88,0.00,,,0.02,Rainwise IP-100,2013-03-03 16:07:00,
2013-03-03 11:12:00,29.9,28.0,29.22,NE,45,0.0,4.7,86,0.00,,,0.02,Rainwise IP-100,2013-03-03 16:12:00,
2013-03-03 11:17:00,30.6,28.0,29.22,NNW,337,0.0,2.8,86,0.00,,,0.02,Rainwise IP-100,2013-03-03 16:17:00,
2013-03-03 11:23:00,31.5,29.0,29.22,SSE,157,0.0,2.3,89,0.00,,,0.02,Rainwise IP-100,2013-03-03 16:23:00,
2013-03-03 11:28:00,31.5,29.0,29.22,ENE,67,2.8,5.1,90,0.00,,,0.02,Rainwise IP-100,2013-03-03 16:28:00,
2013-03-03 11:33:00,31.1,28.0,29.22,East,90,1.4,4.2,87,0.00,,,0.02,Rainwise IP-100,2013-03-03 16:33:00,
2013-03-03 11:38:00,31.1,26.0,29.22,East,90,1.9,4.9,85,0.00,,,0.02,Rainwise IP-100,2013-03-03 16:38:00,
2013-03-03 11:43:00,31.2,28.0,29.22,ESE,112,1.6,4.9,86,0.00,,,0.02,Rainwise IP-100,2013-03-03 16:43:00,
2013-03-03 11:48:00,31.5,28.0,29.22,East,90,0.0,2.6,86,0.00,,,0.02,Rainwise IP-100,2013-03-03 16:48:00,
2013-03-03 11:53:00,31.9,28.0,29.21,ENE,67,2.1,3.5,86,0.00,,,0.02,Rainwise IP-100,2013-03-03 16:53:00,
2013-03-03 11:58:00,32.1,28.0,29.21,ENE,67,2.8,2.8,86,0.00,,,0.02,Rainwise IP-100,2013-03-03 16:58:00,
2013-03-03 12:03:00,32.2,28.0,29.21,NNE,22,3.7,5.6,85,0.00,,,0.02,Rainwise IP-100,2013-03-03 17:03:00,
2013-03-03 12:08:00,32.7,29.0,29.21,SSE,157,1.2,4.7,85,0.00,,,0.02,Rainwise IP-100,2013-03-03 17:08:00,
2013-03-03 12:13:00,33.0,29.0,29.20,NNW,337,11.2,11.2,86,0.00,,,0.02,Rainwise IP-100,2013-03-03 17:13:00,
2013-03-03 12:18:00,32.7,29.0,29.21,NNW,337,3.5,11.7,83,0.00,,,0.02,Rainwise IP-100,2013-03-03 17:18:00,
2013-03-03 12:23:00,32.9,28.0,29.20,NE,45,9.1,12.1,79,0.00,,,0.02,Rainwise IP-100,2013-03-03 17:23:00,
2013-03-03 12:28:00,33.2,28.0,29.20,NNE,22,2.8,9.3,77,0.00,,,0.02,Rainwise IP-100,2013-03-03 17:28:00,
2013-03-03 12:33:00,33.3,26.0,29.20,NNW,337,5.1,14.9,75,0.00,,,0.02,Rainwise IP-100,2013-03-03 17:33:00,
2013-03-03 12:39:00,33.3,26.0,29.20,NNE,22,3.7,8.6,74,0.00,,,0.02,Rainwise IP-100,2013-03-03 17:39:00,
2013-03-03 12:44:00,33.5,28.0,29.20,ENE,67,4.9,10.0,74,0.00,,,0.02,Rainwise IP-100,2013-03-03 17:44:00,
2013-03-03 12:49:00,33.6,28.0,29.19,ENE,67,3.7,9.8,74,0.00,,,0.02,Rainwise IP-100,2013-03-03 17:49:00,
2013-03-03 12:54:00,33.6,28.0,29.20,ENE,67,3.0,14.7,74,0.00,,,0.02,Rainwise IP-100,2013-03-03 17:54:00,
2013-03-03 12:59:00,33.5,28.0,29.19,North,360,10.0,10.0,73,0.00,,,0.02,Rainwise IP-100,2013-03-03 17:59:00,
2013-03-03 13:04:00,33.5,28.0,29.19,NNE,22,7.0,13.1,73,0.00,,,0.02,Rainwise IP-100,2013-03-03 18:04:00,
2013-03-03 13:09:00,33.6,28.0,29.19,NNE,22,6.8,7.2,73,0.00,,,0.02,Rainwise IP-100,2013-03-03 18:09:00,
2013-03-03 13:14:00,33.7,28.0,29.19,ENE,67,4.7,9.6,73,0.00,,,0.02,Rainwise IP-100,2013-03-03 18:14:00,
2013-03-03 13:19:00,33.6,26.0,29.18,North,360,10.0,13.8,72,0.00,,,0.02,Rainwise IP-100,2013-03-03 18:19:00,
2013-03-03 13:24:00,33.5,26.0,29.19,NNE,22,1.9,13.5,72,0.00,,,0.02,Rainwise IP-100,2013-03-03 18:24:00,
2013-03-03 13:29:00,33.7,28.0,29.18,North,360,4.7,6.3,73,0.00,,,0.02,Rainwise IP-100,2013-03-03 18:29:00,
2013-03-03 13:34:00,34.0,28.0,29.18,NNW,337,7.0,10.3,73,0.00,,,0.02,Rainwise IP-100,2013-03-03 18:34:00,
2013-03-03 13:39:00,34.3,26.0,29.18,NNW,337,9.3,9.6,72,0.00,,,0.02,Rainwise IP-100,2013-03-03 18:39:00,
2013-03-03 13:44:00,34.4,26.0,29.18,NNW,337,10.5,11.7,71,0.00,,,0.02,Rainwise IP-100,2013-03-03 18:44:00,
2013-03-03 13:49:00,34.4,26.0,29.18,ENE,67,6.5,13.1,71,0.00,,,0.02,Rainwise IP-100,2013-03-03 18:49:00,
2013-03-03 13:55:00,34.3,26.0,29.18,NNE,22,11.4,16.3,70,0.00,,,0.02,Rainwise IP-100,2013-03-03 18:55:00,
2013-03-03 14:00:00,34.3,26.0,29.18,NE,45,8.9,17.3,70,0.00,,,0.02,Rainwise IP-100,2013-03-03 19:00:00,
2013-03-03 14:05:00,34.4,26.0,29.18,North,360,6.5,13.8,70,0.00,,,0.02,Rainwise IP-100,2013-03-03 19:05:00,
2013-03-03 14:10:00,34.6,26.0,29.18,NNE,22,4.0,14.2,70,0.00,,,0.02,Rainwise IP-100,2013-03-03 19:10:00,
2013-03-03 14:15:00,34.7,26.0,29.18,NNE,22,6.5,11.4,70,0.00,,,0.02,Rainwise IP-100,2013-03-03 19:15:00,
2013-03-03 14:20:00,34.9,26.0,29.18,North,360,7.7,12.1,70,0.00,,,0.02,Rainwise IP-100,2013-03-03 19:20:00,
2013-03-03 14:25:00,35.0,26.0,29.18,NE,45,7.5,13.3,70,0.00,,,0.02,Rainwise IP-100,2013-03-03 19:25:00,
2013-03-03 14:30:00,34.9,26.0,29.18,NW,315,4.9,12.6,70,0.00,,,0.02,Rainwise IP-100,2013-03-03 19:30:00,
2013-03-03 14:35:00,35.2,26.0,29.18,North,360,4.7,10.7,69,0.00,,,0.02,Rainwise IP-100,2013-03-03 19:35:00,
2013-03-03 14:40:00,35.4,26.0,29.18,NNE,22,9.1,14.2,69,0.00,,,0.02,Rainwise IP-100,2013-03-03 19:40:00,
2013-03-03 14:45:00,35.5,26.0,29.18,North,360,8.2,13.3,69,0.00,,,0.02,Rainwise IP-100,2013-03-03 19:45:00,
2013-03-03 14:50:00,35.5,26.0,29.18,North,360,7.9,12.4,69,0.00,,,0.02,Rainwise IP-100,2013-03-03 19:50:00,
2013-03-03 14:55:00,35.5,26.0,29.18,NNW,337,11.0,12.1,69,0.00,,,0.02,Rainwise IP-100,2013-03-03 19:55:00,
2013-03-03 15:00:00,35.6,26.0,29.18,North,360,11.2,12.4,69,0.00,,,0.02,Rainwise IP-100,2013-03-03 20:00:00,
2013-03-03 15:05:00,35.6,26.0,29.18,NNE,22,10.0,14.0,69,0.00,,,0.02,Rainwise IP-100,2013-03-03 20:05:00,
2013-03-03 15:11:00,35.6,26.0,29.18,NNE,22,9.8,12.8,69,0.00,,,0.02,Rainwise IP-100,2013-03-03 20:11:00,
2013-03-03 15:16:00,35.5,26.0,29.18,NNW,337,5.8,11.2,69,0.00,,,0.02,Rainwise IP-100,2013-03-03 20:16:00,
2013-03-03 15:21:00,35.5,26.0,29.18,NNE,22,7.5,15.6,69,0.00,,,0.02,Rainwise IP-100,2013-03-03 20:21:00,
2013-03-03 15:26:00,35.5,26.0,29.18,NNW,337,9.3,16.3,69,0.00,,,0.02,Rainwise IP-100,2013-03-03 20:26:00,
2013-03-03 15:31:00,35.5,26.0,29.17,NNW,337,3.3,13.5,69,0.00,,,0.02,Rainwise IP-100,2013-03-03 20:31:00,
2013-03-03 15:36:00,35.6,26.0,29.18,ENE,67,3.5,13.1,69,0.00,,,0.02,Rainwise IP-100,2013-03-03 20:36:00,
2013-03-03 15:41:00,35.6,26.0,29.17,North,360,7.5,12.6,69,0.00,,,0.02,Rainwise IP-100,2013-03-03 20:41:00,
2013-03-03 15:46:00,35.6,26.0,29.18,NE,45,7.5,12.6,69,0.00,,,0.02,Rainwise IP-100,2013-03-03 20:46:00,
2013-03-03 15:51:00,35.5,26.0,29.18,North,360,8.6,15.9,69,0.00,,,0.02,Rainwise IP-100,2013-03-03 20:51:00,
2013-03-03 15:56:00,35.4,26.0,29.18,NNE,22,3.7,13.8,69,0.00,,,0.02,Rainwise IP-100,2013-03-03 20:56:00,
2013-03-03 16:01:00,35.2,26.0,29.18,NNE,22,3.0,10.3,70,0.00,,,0.02,Rainwise IP-100,2013-03-03 21:01:00,
2013-03-03 16:06:00,35.0,26.0,29.18,NNE,22,1.6,11.0,70,0.00,,,0.02,Rainwise IP-100,2013-03-03 21:06:00,
2013-03-03 16:11:00,34.8,26.0,29.18,North,360,7.0,10.0,71,0.00,,,0.02,Rainwise IP-100,2013-03-03 21:11:00,
2013-03-03 16:16:00,34.7,26.0,29.19,NNW,337,3.7,8.4,71,0.00,,,0.02,Rainwise IP-100,2013-03-03 21:16:00,
2013-03-03 16:21:00,34.6,26.0,29.19,NNE,22,5.4,12.6,71,0.00,,,0.02,Rainwise IP-100,2013-03-03 21:21:00,
2013-03-03 16:27:00,34.4,26.0,29.19,North,360,3.5,13.8,72,0.00,,,0.02,Rainwise IP-100,2013-03-03 21:27:00,
2013-03-03 16:32:00,34.3,26.0,29.19,North,360,7.7,9.8,72,0.00,,,0.02,Rainwise IP-100,2013-03-03 21:32:00,
2013-03-03 16:37:00,34.2,26.0,29.20,NNW,337,7.5,11.4,72,0.00,,,0.02,Rainwise IP-100,2013-03-03 21:37:00,
2013-03-03 16:42:00,34.0,26.0,29.20,North,360,3.3,13.1,72,0.00,,,0.02,Rainwise IP-100,2013-03-03 21:42:00,
2013-03-03 16:47:00,33.9,28.0,29.20,NNE,22,5.4,9.1,73,0.00,,,0.02,Rainwise IP-100,2013-03-03 21:47:00,
2013-03-03 16:52:00,33.8,28.0,29.19,NNW,337,6.3,9.1,73,0.00,,,0.02,Rainwise IP-100,2013-03-03 21:52:00,
2013-03-03 16:57:00,33.7,28.0,29.19,North,360,6.1,10.5,73,0.00,,,0.02,Rainwise IP-100,2013-03-03 21:57:00,
2013-03-03 17:02:00,33.5,28.0,29.20,NW,315,9.8,13.5,73,0.00,,,0.02,Rainwise IP-100,2013-03-03 22:02:00,
2013-03-03 17:07:00,33.3,26.0,29.19,NNW,337,6.8,13.1,73,0.00,,,0.02,Rainwise IP-100,2013-03-03 22:07:00,
2013-03-03 17:12:00,33.1,26.0,29.20,NNE,22,6.1,7.7,73,0.00,,,0.02,Rainwise IP-100,2013-03-03 22:12:00,
2013-03-03 17:17:00,33.0,26.0,29.20,North,360,3.5,11.7,73,0.00,,,0.02,Rainwise IP-100,2013-03-03 22:17:00,
2013-03-03 17:22:00,32.9,26.0,29.20,NNW,337,12.8,14.5,73,0.00,,,0.02,Rainwise IP-100,2013-03-03 22:22:00,
2013-03-03 17:27:00,32.9,26.0,29.20,NNE,22,6.5,14.0,73,0.00,,,0.02,Rainwise IP-100,2013-03-03 22:27:00,
2013-03-03 17:32:00,32.8,26.0,29.20,NNE,22,12.8,13.3,73,0.00,,,0.02,Rainwise IP-100,2013-03-03 22:32:00,
2013-03-03 17:37:00,32.6,26.0,29.20,NNE,22,7.2,12.8,73,0.00,,,0.02,Rainwise IP-100,2013-03-03 22:37:00,
2013-03-03 17:43:00,32.5,26.0,29.20,NNW,337,4.7,11.0,73,0.00,,,0.02,Rainwise IP-100,2013-03-03 22:43:00,
2013-03-03 17:48:00,32.5,26.0,29.20,NNE,22,9.6,10.7,74,0.00,,,0.02,Rainwise IP-100,2013-03-03 22:48:00,
2013-03-03 17:53:00,32.4,24.0,29.21,NNW,337,9.3,11.7,74,0.00,,,0.02,Rainwise IP-100,2013-03-03 22:53:00,
2013-03-03 17:58:00,32.4,24.0,29.21,NNE,22,2.3,9.8,74,0.00,,,0.02,Rainwise IP-100,2013-03-03 22:58:00,
2013-03-03 18:03:00,32.3,24.0,29.21,ENE,67,0.0,4.4,74,0.00,,,0.02,Rainwise IP-100,2013-03-03 23:03:00,
2013-03-03 18:08:00,32.1,26.0,29.21,North,360,1.6,6.5,75,0.00,,,0.02,Rainwise IP-100,2013-03-03 23:08:00,
2013-03-03 18:13:00,32.0,26.0,29.21,NNE,22,4.2,4.9,75,0.00,,,0.02,Rainwise IP-100,2013-03-03 23:13:00,
2013-03-03 18:18:00,32.0,26.0,29.21,NNE,22,0.0,5.8,75,0.00,,,0.02,Rainwise IP-100,2013-03-03 23:18:00,
2013-03-03 18:23:00,32.0,26.0,29.22,NE,45,3.0,4.4,75,0.00,,,0.02,Rainwise IP-100,2013-03-03 23:23:00,
2013-03-03 18:28:00,31.9,26.0,29.21,NNE,22,0.0,4.2,75,0.00,,,0.02,Rainwise IP-100,2013-03-03 23:28:00,
2013-03-03 18:33:00,31.9,26.0,29.22,NE,45,2.8,5.6,75,0.00,,,0.02,Rainwise IP-100,2013-03-03 23:33:00,
2013-03-03 18:38:00,31.9,26.0,29.21,NNE,22,1.4,5.6,75,0.00,,,0.02,Rainwise IP-100,2013-03-03 23:38:00,
2013-03-03 18:43:00,31.9,26.0,29.22,NNE,22,6.3,7.9,75,0.00,,,0.02,Rainwise IP-100,2013-03-03 23:43:00,
2013-03-03 18:48:00,31.9,26.0,29.22,NNE,22,6.3,7.7,75,0.00,,,0.02,Rainwise IP-100,2013-03-03 23:48:00,
2013-03-03 18:53:00,31.9,26.0,29.22,North,360,3.5,7.5,75,0.00,,,0.02,Rainwise IP-100,2013-03-03 23:53:00,
2013-03-03 18:59:00,31.9,26.0,29.22,NNE,22,2.1,5.4,75,0.00,,,0.02,Rainwise IP-100,2013-03-03 23:59:00,
2013-03-03 19:04:00,31.8,26.0,29.22,NE,45,2.1,5.6,75,0.00,,,0.02,Rainwise IP-100,2013-03-04 00:04:00,
2013-03-03 19:09:00,31.8,26.0,29.22,NNW,337,4.0,6.8,75,0.00,,,0.02,Rainwise IP-100,2013-03-04 00:09:00,
2013-03-03 19:14:00,31.8,26.0,29.22,NNW,337,1.2,4.4,75,0.00,,,0.02,Rainwise IP-100,2013-03-04 00:14:00,
2013-03-03 19:19:00,31.7,26.0,29.22,NNW,337,0.0,1.6,75,0.00,,,0.02,Rainwise IP-100,2013-03-04 00:19:00,
2013-03-03 19:24:00,31.6,26.0,29.21,NE,45,1.2,4.4,75,0.00,,,0.02,Rainwise IP-100,2013-03-04 00:24:00,
2013-03-03 19:29:00,31.5,26.0,29.22,NE,45,0.0,1.9,75,0.00,,,0.02,Rainwise IP-100,2013-03-04 00:29:00,
2013-03-03 19:34:00,31.4,24.0,29.22,NE,45,3.0,3.0,75,0.00,,,0.02,Rainwise IP-100,2013-03-04 00:34:00,
2013-03-03 19:39:00,31.3,24.0,29.22,NE,45,0.0,3.3,76,0.00,,,0.02,Rainwise IP-100,2013-03-04 00:39:00,
2013-03-03 19:44:00,31.1,24.0,29.22,NE,45,0.0,2.3,76,0.00,,,0.02,Rainwise IP-100,2013-03-04 00:44:00,
2013-03-03 19:49:00,31.1,24.0,29.22,NE,45,0.0,0.0,76,0.00,,,0.02,Rainwise IP-100,2013-03-04 00:49:00,
2013-03-03 19:54:00,31.1,24.0,29.22,NW,315,0.0,2.6,76,0.00,,,0.02,Rainwise IP-100,2013-03-04 00:54:00,
2013-03-03 19:59:00,31.1,24.0,29.22,NW,315,0.0,0.0,76,0.00,,,0.02,Rainwise IP-100,2013-03-04 00:59:00,
2013-03-03 20:04:00,31.2,24.0,29.21,NNW,337,5.6,7.2,76,0.00,,,0.02,Rainwise IP-100,2013-03-04 01:04:00,
2013-03-03 20:09:00,31.3,24.0,29.22,North,360,1.4,8.2,76,0.00,,,0.02,Rainwise IP-100,2013-03-04 01:09:00,
2013-03-03 20:15:00,31.4,24.0,29.22,North,360,2.3,4.7,76,0.00,,,0.02,Rainwise IP-100,2013-03-04 01:15:00,
2013-03-03 20:20:00,31.4,24.0,29.22,WNW,292,3.0,7.5,75,0.00,,,0.02,Rainwise IP-100,2013-03-04 01:20:00,
2013-03-03 20:25:00,31.4,24.0,29.22,NNW,337,1.9,8.9,75,0.00,,,0.02,Rainwise IP-100,2013-03-04 01:25:00,
2013-03-03 20:30:00,31.3,24.0,29.22,NNE,22,1.9,4.7,75,0.00,,,0.02,Rainwise IP-100,2013-03-04 01:30:00,
2013-03-03 20:35:00,31.2,24.0,29.22,North,360,6.1,6.3,76,0.00,,,0.02,Rainwise IP-100,2013-03-04 01:35:00,
2013-03-03 20:40:00,31.2,24.0,29.22,North,360,3.5,7.5,75,0.00,,,0.02,Rainwise IP-100,2013-03-04 01:40:00,
2013-03-03 20:45:00,31.2,24.0,29.22,NNW,337,2.3,9.8,75,0.00,,,0.02,Rainwise IP-100,2013-03-04 01:45:00,
2013-03-03 20:50:00,31.1,24.0,29.22,NNE,22,2.1,8.9,76,0.00,,,0.02,Rainwise IP-100,2013-03-04 01:50:00,
2013-03-03 20:55:00,31.1,24.0,29.22,WNW,292,7.9,10.5,76,0.00,,,0.02,Rainwise IP-100,2013-03-04 01:55:00,
2013-03-03 21:00:00,31.1,24.0,29.22,WNW,292,7.0,9.1,76,0.00,,,0.02,Rainwise IP-100,2013-03-04 02:00:00,
2013-03-03 21:05:00,31.1,24.0,29.22,NNE,22,1.6,14.0,76,0.00,,,0.02,Rainwise IP-100,2013-03-04 02:05:00,
2013-03-03 21:10:00,31.0,24.0,29.22,NNE,22,3.7,6.8,76,0.00,,,0.02,Rainwise IP-100,2013-03-04 02:10:00,
2013-03-03 21:15:00,31.0,24.0,29.22,NNW,337,11.9,11.9,76,0.00,,,0.02,Rainwise IP-100,2013-03-04 02:15:00,
2013-03-03 21:20:00,30.9,24.0,29.22,NNW,337,3.5,14.7,76,0.00,,,0.02,Rainwise IP-100,2013-03-04 02:20:00,
2013-03-03 21:25:00,30.8,24.0,29.22,NNW,337,1.4,12.8,76,0.00,,,0.02,Rainwise IP-100,2013-03-04 02:25:00,
2013-03-03 21:31:00,30.7,24.0,29.22,NNW,337,7.7,14.7,76,0.00,,,0.02,Rainwise IP-100,2013-03-04 02:31:00,
2013-03-03 21:36:00,30.7,24.0,29.21,NNE,22,4.9,11.7,76,0.00,,,0.02,Rainwise IP-100,2013-03-04 02:36:00,
2013-03-03 21:41:00,30.6,24.0,29.22,North,360,12.4,12.4,76,0.00,,,0.02,Rainwise IP-100,2013-03-04 02:41:00,
2013-03-03 21:46:00,30.5,24.0,29.21,North,360,7.0,14.0,76,0.00,,,0.02,Rainwise IP-100,2013-03-04 02:46:00,
2013-03-03 21:51:00,30.5,24.0,29.22,NNW,337,1.4,9.1,76,0.00,,,0.02,Rainwise IP-100,2013-03-04 02:51:00,
2013-03-03 21:56:00,30.4,24.0,29.22,NNE,22,6.8,14.2,76,0.00,,,0.02,Rainwise IP-100,2013-03-04 02:56:00,
2013-03-03 22:01:00,30.4,24.0,29.22,North,360,6.5,9.6,76,0.00,,,0.02,Rainwise IP-100,2013-03-04 03:01:00,
2013-03-03 22:06:00,30.3,24.0,29.21,NNE,22,7.0,13.1,76,0.00,,,0.02,Rainwise IP-100,2013-03-04 03:06:00,
2013-03-03 22:11:00,30.3,24.0,29.22,NNW,337,2.6,10.3,76,0.00,,,0.02,Rainwise IP-100,2013-03-04 03:11:00,
2013-03-03 22:16:00,30.3,24.0,29.21,NNW,337,7.2,11.0,76,0.00,,,0.02,Rainwise IP-100,2013-03-04 03:16:00,
2013-03-03 22:21:00,30.2,24.0,29.21,North,360,11.0,11.0,76,0.00,,,0.02,Rainwise IP-100,2013-03-04 03:21:00,
2013-03-03 22:26:00,30.1,24.0,29.21,NNE,22,3.0,11.0,76,0.00,,,0.02,Rainwise IP-100,2013-03-04 03:26:00,
2013-03-03 22:31:00,30.1,24.0,29.21,NNE,22,7.7,7.7,76,0.00,,,0.02,Rainwise IP-100,2013-03-04 03:31:00,
2013-03-03 22:36:00,30.2,24.0,29.21,North,360,5.1,11.7,76,0.00,,,0.02,Rainwise IP-100,2013-03-04 03:36:00,
2013-03-03 22:41:00,30.2,24.0,29.21,NNE,22,0.0,6.3,76,0.00,,,0.02,Rainwise IP-100,2013-03-04 03:41:00,
2013-03-03 22:47:00,30.2,24.0,29.21,North,360,3.5,4.7,76,0.00,,,0.02,Rainwise IP-100,2013-03-04 03:47:00,
2013-03-03 22:52:00,30.1,24.0,29.22,WNW,292,2.6,5.1,76,0.00,,,0.02,Rainwise IP-100,2013-03-04 03:52:00,
2013-03-03 22:57:00,30.1,24.0,29.21,East,90,0.0,2.8,76,0.00,,,0.02,Rainwise IP-100,2013-03-04 03:57:00,
2013-03-03 23:02:00,30.1,24.0,29.22,NNE,22,3.5,4.4,76,0.00,,,0.02,Rainwise IP-100,2013-03-04 04:02:00,
2013-03-03 23:07:00,30.1,24.0,29.22,ENE,67,4.7,5.4,76,0.00,,,0.02,Rainwise IP-100,2013-03-04 04:07:00,
2013-03-03 23:12:00,30.1,24.0,29.21,North,360,4.0,7.7,76,0.00,,,0.02,Rainwise IP-100,2013-03-04 04:12:00,
2013-03-03 23:17:00,30.0,24.0,29.21,NNE,22,1.6,5.4,76,0.00,,,0.02,Rainwise IP-100,2013-03-04 04:17:00,
2013-03-03 23:22:00,29.9,24.0,29.22,NNW,337,0.0,4.4,76,0.00,,,0.02,Rainwise IP-100,2013-03-04 04:22:00,
2013-03-03 23:27:00,29.9,24.0,29.21,NNW,337,5.1,7.2,76,0.00,,,0.02,Rainwise IP-100,2013-03-04 04:27:00,
2013-03-03 23:32:00,29.9,24.0,29.21,NNE,22,4.0,5.6,76,0.00,,,0.02,Rainwise IP-100,2013-03-04 04:32:00,
2013-03-03 23:37:00,29.7,24.0,29.22,NNW,337,3.7,7.7,76,0.00,,,0.02,Rainwise IP-100,2013-03-04 04:37:00,
2013-03-03 23:42:00,29.7,24.0,29.21,ENE,67,0.0,4.2,76,0.00,,,0.02,Rainwise IP-100,2013-03-04 04:42:00,
2013-03-03 23:47:00,29.6,24.0,29.21,NE,45,2.8,5.4,76,0.00,,,0.02,Rainwise IP-100,2013-03-04 04:47:00,
2013-03-03 23:52:00,29.5,24.0,29.21,North,360,4.4,4.4,76,0.00,,,0.02,Rainwise IP-100,2013-03-04 04:52:00,
2013-03-03 23:57:00,29.4,23.0,29.21,NNE,22,1.9,7.0,76,0.00,,,0.02,Rainwise IP-100,2013-03-04 04:57:00,